Zhongzi 02 zu 02 xing

operational
NORAD ID: 49019 Int'l Des: 2021-064 Owner: NINGX/CASC Country: CN
LEOCIRCULAR

Zhongzi 02 zu 02 xingについて

説明を読み込み中...

リアルタイム位置

3D地球を読み込み中...

次回通過

高度履歴

Altitude vs Time

uPlot chart will show altitude changes over time

軌道要素

1 49019U 21064B 26062.36421892 -.00000187 00000-0 -31811-4 0 9993
2 49019 45.0045 345.3986 0005884 87.6690 272.4821 14.08531888239323
Epoch: Mar 3, 2026 • Age: 27 hours

現在のステータス

高度 869.9 km
速度 7.42 km/s
衛星直下点 -17.21°S, 22.88°W
打ち上げ日 Jul 9, 2021
運用期間 4.6 years
タイプ other

技術仕様

分類 Payload
質量 100.00 kg
乾燥質量 100.00 kg
総質量 100.00 kg
長さ 0.50 m
直径 0.20 m
スパン 1.00 m
形状 Box + 2 pan
製造者 DFHZ
バスタイプ NX-1
フェーズステータス In Orbit
所有者/国 NINGX/CASC/CN

大規模コンステレーション

Loading constellations...